Location: *
(48.8667°N, 2.3331°E)
Time: 09:27:43
(UTC+00:00)

Cosmos 2061 Rocket - Pass Details

Date: 20 August 2020
Orbit: 966 x 1012 km, 82.9° (Epoch: 23 September)

Event Time Altitude Azimuth Distance (km) Brightness Sun altitude
Exits shadow 21:30:54 23° 193° (SSW) 1,914 5.2 -21.4°
Maximum altitude 21:34:55 81° 279° (W) 985 4.0 -21.8°
Drops below altitude 10° 21:41:10 10° 8° (N) 2,724 6.9 -22.4°
Sets 21:43:42 0° 9° (N) 3,679 7.7 -22.6°
